GFSSW_sfc_wetblb_057.txt.gz
Wetbulb
54.06 54.08 53.94 54.08 54.07 54.04 54.16 54.41 54.68 54.93 55.29 55.69 56.01 56.32 56.59 56.61 55.76 50.05 43.91 48.47 52.53 58.31 59.89 51.40 48.45 48.27 46.33 46.07 49.50 52.17 44.72 42.84 45.22 46.76 47.51 52.13 50.44 53.54 56.07 53.85 53.97 54.27 53.58 56.03 64.90
54.32 54.50 54.53 54.33 54.36 54.18 53.97 54.05 54.42 54.61 55.00 55.49 55.87 55.94 56.16 56.12 51.82 46.97 52.28 56.87 59.75 60.84 48.34 45.83 43.75 46.67 41.07 43.20 46.17 45.68 40.66 45.13 50.70 51.15 49.64 51.72 51.04 52.47 52.42 51.97 52.69 53.71 56.61 57.05 62.22
54.27 54.36 54.41 54.24 54.12 54.01 54.00 53.98 54.15 54.46 54.75 55.01 55.23 55.39 55.78 55.51 47.10 48.00 59.63 59.31 62.68 60.38 50.59 47.77 46.98 45.38 38.59 41.06 42.79 43.04 41.88 47.87 49.64 50.67 51.31 50.54 50.90 52.66 50.71 49.43 51.23 51.43 54.14 56.12 55.74
53.87 54.06 54.06 53.85 53.90 53.48 53.46 53.91 54.02 54.34 54.29 54.41 54.92 55.45 56.14 52.64 37.81 50.85 62.81 61.39 61.93 57.07 49.81 47.01 44.16 38.90 36.78 37.50 41.82 38.36 43.94 45.83 47.24 49.59 49.31 48.29 50.71 49.71 50.59 50.83 54.42 54.58 55.32 54.91 54.96
52.94 53.27 53.31 53.29 53.31 53.10 53.00 52.79 53.39 53.87 53.93 54.25 55.14 56.12 51.51 46.56 47.96 55.73 64.39 62.47 58.71 53.66 48.86 46.33 41.85 38.55 34.84 37.61 39.82 38.38 41.61 44.13 45.60 45.36 46.15 49.35 48.43 49.15 50.10 53.04 54.70 55.06 55.31 54.86 54.77
54.07 53.95 53.95 53.79 53.31 52.94 52.71 52.33 52.58 53.22 53.65 54.21 55.27 56.53 49.05 40.39 53.78 55.97 57.86 57.02 56.90 51.22 49.20 47.35 43.44 42.83 38.36 37.45 36.78 39.71 39.93 41.85 42.71 43.10 44.14 44.51 45.74 46.89 48.50 51.21 50.57 50.95 51.61 54.62 55.04
53.60 54.51 53.92 53.54 52.98 52.88 52.79 52.47 52.37 53.18 53.84 54.59 55.75 54.65 46.63 41.28 52.22 52.56 55.99 52.41 52.04 51.90 48.30 47.54 45.77 42.62 41.24 38.14 39.57 40.03 36.71 39.21 41.03 42.53 42.98 46.27 42.83 44.22 48.88 50.32 49.76 50.61 51.70 53.45 55.03
53.60 53.67 54.14 53.41 53.18 52.96 52.94 52.77 52.93 53.51 54.25 54.96 56.14 50.59 40.95 52.03 52.46 49.96 49.19 50.29 49.27 51.67 49.86 48.40 46.01 42.01 39.22 39.40 39.53 35.34 33.64 29.63 37.86 41.78 42.70 43.73 38.56 45.48 46.91 47.10 47.82 48.86 50.23 51.19 52.37
53.30 53.69 53.51 53.28 53.22 53.16 52.77 53.18 53.43 54.32 55.06 55.45 50.13 45.70 44.48 55.80 48.71 49.96 47.86 46.28 47.43 47.81 47.23 49.78 44.93 40.78 40.03 34.46 31.43 32.46 27.63 29.97 35.44 40.42 40.60 40.54 36.34 42.22 45.11 44.97 44.73 45.42 46.85 48.70 49.77
53.18 53.65 52.70 52.74 52.93 52.81 52.52 52.53 52.41 53.22 53.92 54.79 52.78 44.54 46.50 47.28 49.58 49.30 48.15 48.04 46.12 45.60 44.06 42.98 38.57 35.93 32.96 31.44 25.96 29.67 29.75 32.66 32.93 38.46 39.36 38.21 38.09 40.99 43.61 43.93 43.96 44.62 45.55 46.39 47.46
53.70 53.35 52.58 52.50 52.68 53.04 49.77 45.09 41.83 40.85 46.61 42.84 46.95 45.78 49.92 52.35 51.07 47.11 48.89 47.18 46.15 41.91 35.06 38.33 33.41 30.71 34.82 35.34 36.57 35.48 33.28 32.09 35.58 39.38 36.91 36.03 37.62 40.35 41.62 41.36 41.35 42.51 44.12 45.11 46.34
52.35 52.50 52.75 52.69 52.67 52.65 46.40 44.50 45.40 44.43 38.65 45.89 45.91 48.28 51.07 50.74 44.41 46.19 48.89 42.28 40.69 34.98 36.77 34.31 30.09 37.07 38.90 37.90 36.22 34.75 31.62 31.78 35.88 39.96 38.10 36.54 36.90 39.75 40.67 40.80 41.19 41.85 42.59 43.70 45.17
51.84 51.91 51.88 52.20 51.81 46.72 43.24 46.04 49.87 44.57 36.59 42.31 46.27 45.46 45.80 46.99 43.49 43.79 46.24 42.68 38.55 34.08 33.31 31.20 35.75 40.36 38.76 36.83 36.41 33.93 33.01 33.27 33.71 37.94 37.87 35.52 34.65 36.67 39.47 40.90 42.25 42.77 42.93 43.64 43.70
51.35 51.42 51.59 51.10 45.88 43.70 45.10 49.63 47.92 45.23 33.50 41.00 42.22 45.00 45.35 43.96 41.57 47.97 47.64 43.46 38.01 34.43 34.85 33.64 38.09 38.34 35.68 36.28 37.11 30.80 38.29 37.79 36.21 32.63 25.98 35.31 24.96 32.68 37.10 38.12 39.57 41.16 41.26 42.38 42.96
51.05 51.50 51.12 50.68 43.70 43.95 48.20 47.50 46.36 46.01 23.78 43.43 41.83 47.16 43.24 41.17 42.75 44.87 47.22 42.42 37.18 36.98 35.56 33.86 34.41 34.28 34.01 36.28 39.01 34.11 39.27 36.26 35.59 30.96 27.44 29.87 24.94 30.19 37.22 35.33 37.69 39.56 41.87 43.48 45.04
50.86 51.09 50.78 47.72 43.85 46.98 48.11 46.54 46.52 33.91 25.97 38.44 42.52 41.67 40.44 41.29 42.07 43.89 42.89 43.74 42.13 36.82 36.10 35.92 38.96 37.95 37.78 40.31 39.46 40.13 34.95 32.83 30.68 28.13 21.29 28.20 27.12 26.36 30.39 33.60 36.86 40.84 44.00 45.11 45.13
50.62 50.67 48.91 48.89 43.33 45.55 46.46 43.95 32.76 26.80 39.67 35.70 36.53 39.41 38.27 38.20 39.90 40.83 39.08 36.13 32.53 28.43 28.82 34.01 33.94 38.96 41.57 35.59 37.00 34.05 27.29 20.42 18.97 19.01 20.73 29.81 27.45 30.22 36.31 39.65 40.74 41.32 42.99 44.15 44.84
49.84 49.40 48.75 49.03 45.38 46.68 43.26 37.52 28.07 36.09 34.85 39.73 38.25 38.35 36.27 39.22 39.36 40.14 37.65 34.22 39.29 33.95 28.70 24.42 24.25 35.49 41.92 36.20 31.82 30.95 28.96 21.13 16.20 18.63 22.27 30.36 23.48 29.62 39.42 42.45 43.12 43.93 43.73 44.19 44.01
48.44 44.70 46.08 49.03 49.56 45.37 39.30 30.21 31.02 35.21 39.10 37.40 37.26 34.50 36.18 38.96 38.49 37.63 36.78 36.99 38.22 36.77 29.28 27.45 29.06 38.53 39.90 38.88 36.53 30.45 27.28 31.02 24.48 24.46 19.74 24.80 30.10 36.30 39.91 40.40 41.93 41.33 42.48 41.93 42.42
41.60 43.71 45.68 50.00 47.85 43.05 35.63 34.26 36.04 41.63 41.20 39.39 31.63 36.03 31.03 34.68 35.68 36.12 35.91 40.32 38.97 40.35 37.78 33.48 27.07 36.32 38.78 38.71 37.69 33.43 34.75 23.60 23.87 18.59 18.07 23.32 25.63 27.89 34.08 36.80 39.97 40.24 40.31 41.31 42.38
42.77 41.97 47.55 47.37 47.06 40.57 31.93 34.57 39.44 43.25 42.33 38.38 35.29 34.03 34.41 33.84 34.51 35.27 35.67 39.78 41.44 39.99 38.33 34.96 30.27 31.14 35.25 32.49 30.01 29.99 28.08 29.51 27.25 25.35 17.25 16.54 23.74 34.23 35.62 38.49 38.84 39.99 41.37 40.82 41.26
39.61 36.89 47.63 45.81 36.44 33.84 32.92 37.49 42.13 40.99 43.37 40.47 38.62 36.96 34.88 35.70 33.39 35.09 34.82 38.25 41.89 40.62 34.59 36.79 30.79 27.17 30.10 36.36 37.82 34.10 30.82 30.09 19.77 18.72 27.97 24.28 25.22 38.41 38.92 38.60 39.44 39.85 42.44 42.58 43.21
38.43 38.58 46.70 44.62 28.67 29.37 34.08 37.95 39.84 40.24 39.96 38.74 36.77 37.87 37.05 33.15 29.46 35.91 37.58 41.93 40.47 38.20 36.60 35.86 28.72 24.99 25.92 29.23 32.91 31.14 34.04 32.96 31.35 27.45 25.61 23.38 25.35 38.14 38.81 39.32 40.53 40.48 41.94 42.86 43.19
38.62 32.96 36.45 37.93 35.59 31.84 31.67 34.10 36.16 42.18 40.15 39.52 37.70 37.29 34.37 32.64 34.20 32.35 35.11 39.93 39.89 39.67 44.60 41.67 30.52 28.72 24.62 27.17 28.62 29.19 32.82 35.08 34.00 28.36 27.17 27.46 29.37 34.63 36.98 37.28 39.35 40.94 41.59 41.38 43.22
35.15 31.94 33.48 27.66 30.46 31.73 32.55 34.65 33.89 34.57 38.69 37.81 34.65 34.80 32.81 28.28 30.98 31.34 34.25 35.82 38.31 40.08 37.44 34.86 28.44 31.15 32.59 34.09 34.55 33.55 33.34 34.24 32.67 33.43 29.98 31.08 30.65 34.48 36.72 37.01 39.03 41.43 42.72 43.54 46.39
34.80 33.42 34.51 32.07 34.07 32.53 31.95 30.57 32.87 35.21 35.02 33.98 31.78 34.20 33.37 29.11 30.95 29.86 32.25 30.89 32.12 34.92 32.43 33.50 27.31 31.52 30.50 33.70 33.57 31.30 33.85 34.45 34.18 34.37 34.45 34.13 32.69 38.76 39.80 40.22 40.18 40.32 41.53 42.22 46.17
37.83 37.25 35.87 31.88 31.15 29.66 28.67 31.80 32.82 34.66 36.30 38.05 34.44 32.72 32.17 34.19 37.10 37.58 37.97 37.36 35.13 32.81 30.81 30.41 28.13 27.34 25.33 32.42 32.09 27.60 32.31 34.20 35.44 37.25 36.13 30.98 35.54 38.84 38.33 38.62 38.85 39.96 40.79 41.95 44.55

GFSSW_sfc_wetblb_060.txt.gz
Wetbulb
54.42 54.37 54.54 54.68 54.29 53.97 53.78 53.97 54.34 54.58 54.81 55.27 55.65 55.87 55.97 55.84 55.33 49.72 43.85 47.83 51.51 56.88 59.32 50.23 46.24 46.04 45.14 43.62 46.84 51.09 44.77 41.90 44.37 45.78 46.99 51.49 49.75 52.10 55.16 53.15 52.82 53.82 53.65 55.15 65.04
54.16 54.31 54.25 54.15 54.04 53.95 53.56 53.54 53.83 54.34 54.52 54.90 55.27 55.51 55.64 55.21 51.58 47.98 52.73 55.65 57.42 59.31 46.77 44.26 42.35 44.86 39.93 41.26 44.48 44.28 39.05 43.69 49.84 50.30 49.12 51.44 50.04 51.26 50.83 50.74 50.59 52.14 54.94 56.55 58.40
53.36 53.48 53.63 53.52 53.60 53.53 53.41 53.41 53.16 54.06 54.40 54.55 54.91 55.26 54.94 54.63 46.04 45.84 59.02 58.79 58.91 58.88 49.21 46.33 45.38 44.05 37.50 39.51 41.22 39.29 38.45 46.17 49.06 50.33 49.95 49.11 49.16 51.40 48.98 47.70 50.36 49.94 52.16 54.44 55.58
54.17 54.58 54.58 54.25 53.95 53.60 53.30 53.28 53.01 53.27 53.84 54.17 54.55 54.69 55.44 51.61 34.90 47.84 62.27 60.64 61.11 55.53 48.07 45.34 42.71 37.58 35.13 36.22 40.10 36.54 41.13 45.40 46.70 48.24 46.98 46.76 48.55 47.69 48.67 48.63 52.09 52.65 53.27 53.42 54.19
54.05 54.31 54.17 54.01 53.84 53.42 53.16 53.05 52.88 52.48 52.94 53.77 54.16 54.66 50.90 43.84 46.58 54.45 63.61 61.00 56.44 50.66 47.32 44.83 40.56 37.81 34.62 35.91 37.78 36.56 38.91 41.39 43.54 44.68 44.96 45.87 45.10 45.72 46.86 49.94 51.85 52.46 52.48 52.39 53.30
53.86 53.73 53.52 53.71 53.50 53.42 53.05 52.44 52.33 51.96 52.37 53.72 54.16 55.69 47.37 36.57 50.30 53.61 56.49 56.65 55.47 49.29 48.06 45.92 42.46 42.22 37.51 36.28 35.69 38.23 38.35 39.59 41.29 42.62 43.59 43.48 44.17 45.39 47.28 50.14 49.94 50.39 49.75 49.65 52.00
53.70 53.68 53.41 53.49 53.33 53.11 52.78 52.52 52.21 52.08 53.08 54.06 54.92 54.42 45.07 39.71 50.03 50.92 54.57 50.89 53.83 51.38 47.16 47.81 45.62 41.26 39.97 36.20 38.24 38.41 34.43 37.61 39.46 41.54 41.85 43.85 41.03 42.59 47.25 48.91 48.49 48.80 49.11 49.90 51.42
53.49 52.81 53.29 53.08 53.04 53.02 52.88 53.10 53.02 53.53 53.83 54.36 55.29 49.83 40.50 48.89 50.81 51.29 49.82 49.18 50.90 51.02 49.57 47.80 45.03 40.65 38.01 37.99 37.91 33.63 32.37 28.72 35.14 39.18 41.54 42.59 37.03 43.72 45.41 45.60 45.47 47.26 47.22 47.87 48.13
52.52 52.29 52.25 52.42 52.81 53.04 52.52 52.92 53.51 53.99 54.40 55.01 49.57 43.49 42.99 54.50 50.02 48.60 47.07 45.29 45.64 47.34 47.81 50.69 43.34 38.88 38.59 33.41 30.23 31.41 26.03 28.57 34.79 38.61 38.74 38.63 36.04 42.07 44.47 44.25 44.23 45.10 47.16 46.77 46.74
52.79 52.27 51.87 51.92 52.29 52.77 52.30 52.57 51.94 53.89 54.50 54.32 52.70 42.81 45.54 46.75 50.06 48.28 47.25 46.67 44.93 44.10 42.55 41.90 37.63 34.64 32.02 30.50 25.04 28.01 28.40 30.73 31.45 36.18 37.80 35.47 35.79 40.49 42.85 42.89 43.01 43.69 44.95 46.46 46.89
51.75 52.17 52.17 51.86 52.58 52.64 49.53 43.72 41.17 39.48 46.38 40.90 44.60 43.47 46.90 50.81 50.44 45.68 47.67 45.74 44.66 40.99 33.93 36.76 33.22 30.36 33.86 34.61 34.57 33.51 31.62 30.87 34.13 37.87 36.60 35.34 36.03 38.32 41.69 41.04 40.62 41.93 43.25 44.48 46.93
51.41 51.12 51.30 51.76 52.30 52.35 44.80 44.09 44.20 43.32 37.44 44.54 44.36 46.61 49.43 49.84 43.97 46.52 47.34 41.50 39.25 33.93 35.34 33.32 29.44 35.46 37.91 36.92 35.07 33.21 30.32 30.46 34.87 38.43 36.14 35.36 35.45 38.69 39.88 40.55 40.97 41.30 42.25 42.78 44.47
51.08 50.59 51.09 51.43 51.97 45.70 42.94 45.79 47.44 43.51 36.04 41.05 44.72 44.13 44.43 46.87 42.84 43.22 44.92 41.39 37.24 32.80 32.28 30.40 34.46 39.11 37.41 35.74 35.05 32.52 31.33 31.68 32.58 36.30 35.71 34.12 30.71 33.68 38.43 40.04 41.31 42.31 42.30 42.65 42.75
50.35 50.28 50.66 50.76 45.03 43.68 44.33 47.70 46.55 43.85 32.93 39.41 42.05 44.15 44.79 43.54 40.71 46.94 46.54 42.82 36.65 33.45 33.80 32.33 36.40 36.91 34.17 34.85 35.96 29.45 37.33 36.51 34.48 30.56 24.25 33.59 22.35 29.52 34.13 35.73 38.45 39.42 39.35 40.72 43.20
50.07 50.49 50.51 50.25 42.84 43.55 46.88 46.14 45.06 44.77 22.09 41.60 40.32 45.76 43.17 40.97 41.98 43.41 45.81 41.36 36.56 35.70 34.01 32.95 33.65 33.04 32.55 34.61 37.61 32.56 37.90 34.56 33.88 29.14 26.06 27.70 22.96 27.33 33.22 32.60 34.78 38.26 40.20 43.12 44.55
50.77 50.97 50.75 47.12 43.26 45.93 46.59 45.36 45.52 32.57 24.67 36.54 40.37 39.09 38.06 39.83 40.73 42.96 43.27 43.41 40.93 36.07 35.01 34.62 37.44 36.12 35.81 38.86 38.04 37.73 33.60 30.88 28.09 26.00 19.83 25.83 25.20 23.75 29.28 33.18 36.07 39.90 42.11 43.34 44.23
50.58 50.81 48.47 47.47 42.12 44.17 45.13 43.10 32.29 25.43 37.92 34.19 35.04 37.21 35.52 37.18 39.00 40.26 38.38 36.11 33.40 30.06 29.30 33.56 32.89 37.71 40.18 34.25 35.13 32.63 26.30 19.62 18.58 18.27 19.15 27.76 25.29 27.47 34.23 37.42 38.10 40.46 42.13 43.31 43.21
49.91 48.90 48.52 48.04 45.75 46.31 42.60 36.87 26.64 34.74 33.52 38.38 37.15 36.28 34.33 37.36 37.30 39.34 36.85 33.34 39.18 34.60 28.92 27.32 25.98 35.53 40.35 34.62 31.11 29.18 27.64 20.34 15.71 17.55 18.25 28.35 22.42 27.01 36.05 39.06 41.05 42.55 42.63 43.39 43.57
48.37 45.00 45.84 47.42 48.88 43.80 39.15 29.66 29.86 34.09 38.49 36.87 36.26 32.36 33.30 36.99 36.56 36.22 35.69 36.28 38.40 37.65 30.74 29.50 30.14 38.46 39.39 38.28 36.17 28.99 26.04 28.83 23.34 21.81 17.61 22.66 27.62 34.26 37.84 37.73 39.52 41.01 41.74 41.46 42.49
42.26 43.32 45.10 46.95 45.97 42.74 35.74 33.39 34.88 40.87 40.17 38.43 30.40 34.34 29.71 32.49 33.04 32.28 34.79 39.85 38.74 40.23 38.39 33.97 28.01 37.07 38.86 38.20 35.94 32.40 33.79 23.48 21.92 17.54 17.69 21.48 23.75 26.06 32.32 35.06 36.73 38.69 39.14 41.29 42.61
42.16 41.23 46.14 46.50 45.83 39.49 31.18 33.36 38.71 42.15 41.32 37.61 33.79 32.55 33.00 32.56 32.85 31.87 33.78 38.95 41.00 39.65 39.56 35.69 32.24 31.75 35.86 32.83 29.96 28.91 27.13 28.28 25.33 21.65 15.96 15.54 22.72 31.95 32.79 35.59 35.91 36.50 39.66 41.30 42.39
39.65 36.16 45.67 45.06 36.75 32.32 31.84 35.94 40.98 39.77 42.18 39.78 37.21 35.36 33.48 34.34 32.20 32.61 33.09 37.48 42.46 41.69 34.77 37.08 32.40 28.26 31.04 36.04 37.07 32.72 29.85 29.01 19.84 19.18 27.40 25.01 25.16 36.65 37.10 35.16 37.09 37.80 40.27 42.56 43.72
36.49 37.39 45.05 43.81 29.10 29.45 33.19 36.28 38.37 38.63 39.07 37.74 35.98 36.95 35.59 31.86 29.57 33.61 35.46 40.60 39.80 38.98 37.24 37.25 29.99 25.25 26.23 29.04 31.59 30.10 32.70 30.95 28.84 26.60 25.76 23.43 25.39 37.03 37.32 37.35 39.33 38.03 40.27 41.94 43.04
35.77 31.93 34.42 35.15 33.96 31.18 30.54 32.55 34.95 40.22 38.52 37.95 36.11 35.93 33.24 31.10 32.90 31.49 32.99 38.69 39.65 39.15 42.86 40.45 31.49 29.45 23.39 25.70 27.34 27.28 31.42 32.82 31.21 28.01 26.33 27.71 29.41 34.68 36.56 36.74 37.47 39.37 40.65 41.23 42.00
34.36 30.34 32.77 26.20 28.50 29.65 31.04 32.76 33.12 33.19 36.58 36.27 33.37 32.75 30.39 27.72 29.40 30.27 32.72 34.38 38.08 39.62 36.55 35.67 29.86 31.16 31.38 33.21 33.46 32.20 32.24 32.93 30.82 31.64 28.33 30.49 30.83 34.70 37.29 37.56 38.42 40.05 40.34 41.01 41.66
33.29 31.36 32.71 30.54 32.40 31.12 30.74 29.47 31.27 33.44 33.38 32.34 30.45 33.12 32.12 27.99 30.47 29.94 31.01 31.57 31.79 34.22 33.18 32.83 27.17 29.66 29.33 33.21 33.23 30.89 32.63 32.84 32.97 33.17 32.97 33.08 32.09 39.50 39.92 39.65 38.87 39.09 40.23 40.54 41.53
36.58 36.18 35.42 30.35 29.16 28.72 27.50 30.86 31.88 33.11 34.74 36.21 33.59 31.35 30.62 33.10 34.96 35.57 35.20 36.15 35.01 31.94 30.60 32.35 28.74 28.24 25.23 30.73 30.80 26.92 31.20 32.49 33.32 35.64 34.37 30.11 35.26 37.52 37.17 39.00 39.51 39.91 40.74 40.62 41.60

GFSSW_sfc_wetblb_063.txt.gz
Wetbulb
53.76 53.82 53.83 54.10 53.92 53.80 53.72 53.71 53.60 54.06 54.64 54.88 55.29 55.52 55.75 55.69 55.12 53.25 48.65 52.06 54.01 59.13 57.84 52.68 49.72 50.02 50.00 49.80 52.94 57.01 48.96 45.36 47.32 47.49 49.00 53.77 52.02 55.35 57.13 55.29 55.91 56.94 57.07 58.22 60.13
54.86 54.94 54.79 54.68 54.31 54.25 53.95 53.42 53.47 53.46 54.23 54.71 54.99 55.27 55.40 55.07 52.84 50.31 55.85 55.66 57.22 58.34 50.18 48.32 47.36 48.40 46.98 47.59 50.73 50.91 46.83 47.15 51.85 52.44 51.47 52.87 52.68 53.46 52.74 53.78 54.14 55.22 57.14 58.33 58.50
54.66 54.69 54.59 54.71 54.49 54.19 53.79 53.48 53.36 53.34 53.42 54.30 54.38 54.50 54.38 55.10 49.19 49.37 59.11 58.49 57.99 59.43 52.09 49.67 49.32 48.99 44.95 47.34 47.76 48.59 45.39 49.89 52.18 53.78 53.82 52.72 50.99 53.20 51.05 50.53 54.09 52.32 54.38 55.69 57.47
54.46 54.72 54.70 54.27 54.58 54.27 53.87 53.45 53.26 53.21 53.34 53.25 54.02 54.02 54.94 53.42 41.17 53.12 61.81 60.00 61.01 56.33 50.88 48.45 47.66 45.72 44.14 43.25 46.54 43.60 46.87 48.83 50.87 52.71 51.07 51.48 49.85 49.30 50.28 51.40 53.15 53.47 54.34 55.80 55.78
54.40 54.14 54.06 54.06 53.96 54.16 54.05 53.49 53.09 52.55 52.29 52.62 53.69 53.94 53.22 47.75 49.28 57.18 62.22 61.15 57.70 52.63 50.66 49.03 46.19 45.33 42.82 43.58 44.26 43.94 44.97 46.06 47.61 47.53 48.36 48.95 48.91 48.51 48.87 50.57 51.74 53.04 53.78 53.83 54.87
53.70 53.50 53.45 53.41 53.58 53.68 53.61 53.10 52.48 52.12 51.76 52.27 53.39 54.46 50.62 42.04 53.96 57.40 59.49 57.31 55.40 52.54 51.65 50.61 48.09 48.03 44.78 44.15 43.58 44.32 44.32 44.96 45.86 46.66 46.46 45.97 47.26 47.67 49.16 50.81 50.69 51.95 52.54 53.64 54.61
52.73 52.25 52.42 52.41 52.70 53.20 53.16 52.41 52.24 52.28 52.91 53.64 53.90 53.78 48.00 43.70 54.06 54.75 57.67 55.93 56.57 54.06 49.82 51.93 51.18 46.51 46.34 43.23 45.23 44.15 41.78 43.60 44.49 45.73 45.34 46.44 43.97 44.83 47.40 49.53 48.73 50.15 51.01 51.83 52.71
52.50 52.08 52.33 52.04 52.30 52.74 52.72 52.58 52.30 52.99 53.70 54.10 54.89 53.43 44.48 50.93 54.26 54.44 54.82 53.78 54.66 55.97 53.07 51.96 50.72 47.15 45.79 45.59 43.26 41.15 40.74 38.22 42.11 43.18 44.73 45.16 41.38 45.29 47.28 47.47 47.05 48.13 49.54 50.39 52.40
52.97 52.70 51.99 52.03 52.30 52.64 52.68 52.70 53.69 53.99 54.21 54.77 52.78 49.09 46.25 56.80 52.25 52.21 53.30 48.84 49.38 50.77 52.08 50.70 48.82 45.05 44.51 41.55 39.57 39.44 35.65 36.95 39.65 44.36 44.00 43.24 40.86 44.49 47.19 46.66 46.50 47.80 48.59 49.57 51.16
52.14 52.20 51.39 51.64 52.10 52.58 52.90 52.20 54.67 55.85 54.83 55.01 53.51 46.78 50.07 48.82 53.11 52.50 51.15 49.39 47.64 47.38 46.17 46.14 45.36 42.60 42.06 40.30 34.55 35.51 36.12 37.39 37.79 41.66 43.55 41.83 41.41 44.45 46.27 45.63 45.91 46.99 47.54 48.95 50.46
51.30 50.97 51.08 51.35 51.83 52.67 51.51 50.74 48.03 46.05 50.91 45.55 46.25 45.81 47.44 52.24 52.85 48.98 50.25 48.37 47.70 45.71 40.86 42.31 40.38 37.97 39.93 41.00 40.47 38.94 37.48 36.66 39.43 42.18 41.53 41.12 41.21 42.99 45.48 45.46 45.38 45.88 47.15 48.50 49.05
50.96 50.80 51.18 51.41 51.81 52.43 49.26 48.98 47.94 48.70 43.14 47.07 47.37 48.09 50.14 51.03 45.85 49.24 50.56 45.22 43.88 40.35 40.87 39.82 37.49 41.31 41.50 40.52 39.11 38.50 36.92 36.82 40.39 42.44 41.26 40.67 40.00 42.78 44.36 45.21 46.49 46.49 46.50 47.36 48.39
50.43 50.79 51.01 51.43 51.70 49.83 48.89 49.18 51.32 48.83 42.80 44.55 46.36 46.15 47.06 49.26 45.31 46.23 47.98 45.54 42.62 39.40 39.11 37.12 39.23 41.59 40.60 39.52 38.46 38.13 37.39 37.32 36.67 39.90 41.10 39.68 37.67 39.65 42.75 44.27 45.61 46.76 47.39 47.45 47.28
50.56 50.96 51.11 51.01 49.17 48.80 49.31 50.66 50.92 49.33 40.26 41.67 44.10 46.65 47.45 47.58 43.47 49.35 48.82 46.44 41.84 39.53 38.65 38.78 40.90 40.04 39.08 38.43 40.66 36.22 41.48 39.44 37.56 36.21 32.32 38.88 30.63 37.49 40.43 41.77 43.78 45.82 47.77 48.79 48.88
50.73 51.55 51.39 50.15 49.36 49.50 50.35 50.77 50.84 50.00 29.91 43.44 43.28 49.56 46.60 44.24 44.66 45.46 48.67 45.44 41.34 40.53 39.82 37.82 38.92 38.71 37.88 38.97 41.64 37.50 41.65 39.18 38.09 36.57 34.68 35.10 32.23 36.72 39.83 39.38 42.41 44.87 46.64 49.71 50.49
51.20 51.35 50.49 49.79 49.00 50.86 49.93 50.27 51.25 39.56 29.22 38.71 42.58 41.47 41.95 42.95 43.11 45.48 45.15 46.40 44.63 41.09 40.37 40.36 42.05 40.77 40.40 42.38 41.91 41.90 39.21 37.06 36.32 35.65 29.37 33.16 32.83 34.08 37.27 40.01 42.38 44.47 46.21 48.28 50.62
50.76 50.84 49.89 49.15 48.33 49.85 50.34 49.44 39.20 32.98 40.13 36.71 37.92 41.16 39.80 40.60 41.52 42.54 41.41 40.16 38.45 34.71 35.18 38.14 37.99 41.23 43.44 39.43 40.83 39.64 36.28 30.41 28.32 28.34 28.63 34.14 32.05 34.98 40.12 42.58 43.67 43.69 45.58 48.21 50.60
49.78 49.28 50.37 50.40 52.00 51.02 49.56 43.93 32.99 36.53 35.68 41.08 40.18 40.63 37.58 40.64 40.46 41.05 39.70 38.03 41.47 38.15 35.80 33.38 31.32 38.75 42.90 39.89 37.71 37.22 36.50 31.19 21.85 25.11 28.99 33.91 29.62 36.11 41.66 43.88 45.11 46.05 47.58 48.84 48.76
48.70 50.17 51.02 52.00 52.06 49.26 46.42 37.33 35.87 37.17 40.06 38.54 39.80 35.87 36.71 39.41 39.39 39.31 38.90 38.50 40.36 41.20 34.65 33.24 32.60 40.11 41.38 42.04 41.05 35.70 33.72 37.06 31.71 30.61 27.82 31.92 35.27 39.58 42.33 42.62 43.77 44.82 46.56 46.95 48.23
46.81 48.64 50.49 50.88 50.32 49.14 43.12 37.25 38.84 42.53 41.67 40.33 34.09 37.06 33.81 36.22 36.47 37.12 37.05 40.85 39.84 42.45 42.64 37.82 31.55 38.74 39.70 41.51 40.37 38.97 39.88 31.31 33.26 23.54 22.23 29.54 31.05 32.99 38.13 40.03 42.62 44.49 45.11 46.57 48.43
47.30 46.89 50.97 49.46 50.89 45.95 38.79 38.28 40.74 44.68 43.08 39.73 37.20 36.14 36.88 36.03 37.33 36.33 36.67 40.19 42.45 41.37 42.80 38.27 34.79 34.76 38.00 35.74 35.03 36.14 34.75 34.85 34.28 32.23 25.61 24.36 30.74 39.54 39.50 41.70 42.19 43.68 45.36 46.23 48.12
45.58 42.07 50.09 49.15 43.19 37.74 38.68 38.58 40.50 41.38 43.77 42.09 41.00 39.57 37.43 37.47 36.27 36.25 35.62 38.73 43.83 43.10 37.65 39.25 36.71 32.01 33.75 39.06 40.09 38.46 36.86 36.95 30.19 28.16 31.63 30.41 30.58 42.32 42.89 43.08 43.51 44.51 46.01 47.51 48.89
41.97 42.57 49.56 48.11 37.99 36.71 37.62 37.87 39.44 39.65 40.59 40.27 38.76 39.73 39.58 37.20 34.08 36.79 37.95 41.05 42.20 42.00 38.22 40.04 34.89 28.68 29.99 33.67 36.91 34.86 36.60 37.40 36.69 34.42 30.28 27.48 31.44 42.01 42.80 43.87 45.07 44.91 46.08 47.18 48.30
40.95 37.43 40.67 40.92 38.90 35.86 33.41 34.10 36.50 41.50 39.86 39.78 38.82 39.53 37.34 35.71 38.43 35.33 35.99 39.70 41.15 40.65 41.97 41.56 36.27 32.36 27.34 31.13 34.66 32.57 35.12 36.84 35.93 30.95 31.64 32.11 34.35 38.93 41.35 42.42 44.47 45.47 46.62 47.32 47.50
39.57 36.12 36.92 33.21 34.49 35.16 35.34 34.83 34.26 34.77 39.06 39.53 37.01 36.00 34.54 32.20 33.84 33.75 36.69 37.41 39.29 41.35 40.87 39.52 31.69 34.06 35.31 36.33 36.44 35.29 35.20 35.97 34.38 35.33 30.98 33.80 34.26 38.79 41.83 43.42 44.63 46.22 46.34 46.05 46.55
37.81 36.64 37.76 35.72 35.34 34.28 34.48 33.64 33.26 34.54 34.97 34.08 34.36 36.16 36.18 32.89 34.39 32.00 34.92 35.25 34.77 38.97 38.10 39.48 32.74 34.65 32.56 35.69 35.95 33.87 35.38 35.78 35.81 36.08 35.91 36.30 35.78 42.75 44.70 45.59 44.72 45.02 45.38 45.36 46.00
39.74 40.30 39.58 34.08 33.31 32.78 32.86 33.89 33.76 35.13 36.41 38.02 36.94 34.81 33.16 35.09 38.34 39.35 39.73 39.14 38.52 36.42 36.16 35.59 34.55 31.84 27.51 33.30 33.30 28.99 34.35 35.94 36.84 38.61 37.95 34.47 39.82 44.23 42.82 43.32 44.08 44.70 45.09 45.27 45.83

GFSSW_sfc_wetblb_069.txt.gz
Wetbulb
55.59 56.00 56.06 56.06 55.72 55.85 55.82 55.46 55.01 54.86 54.83 54.99 55.00 55.84 55.90 55.94 55.59 57.86 56.55 57.60 58.18 59.62 58.28 55.12 56.18 55.41 56.12 55.80 57.51 57.92 51.37 49.48 51.28 51.66 53.35 57.31 55.97 57.69 58.45 56.49 58.87 59.36 59.55 61.75 62.41
55.10 55.48 55.57 55.77 55.62 55.65 55.41 55.26 54.89 54.92 54.75 54.74 54.81 55.07 55.55 55.49 56.43 57.69 59.70 59.51 58.53 59.43 54.11 51.78 50.70 53.85 52.92 53.65 55.25 53.36 49.97 50.13 54.09 55.39 54.72 55.93 56.84 57.14 56.00 55.37 55.94 58.20 60.72 62.10 62.00
54.57 54.65 54.52 54.53 55.05 55.10 55.02 55.04 55.01 54.78 54.80 54.47 54.59 54.62 55.33 56.19 56.65 54.29 61.00 59.04 59.83 59.79 57.54 53.81 52.52 52.71 51.17 53.65 53.37 52.95 49.54 52.61 53.28 55.00 56.10 55.62 55.84 58.24 56.68 54.62 55.76 55.68 58.99 60.37 60.59
54.41 54.55 54.29 53.77 53.86 53.81 54.18 54.46 54.61 54.57 54.21 53.86 53.79 54.20 55.26 57.01 49.23 57.71 61.33 59.92 59.29 60.12 55.37 52.89 51.15 49.69 49.43 49.75 53.25 50.39 52.75 53.58 53.82 54.41 54.04 53.99 56.63 55.98 57.05 57.48 59.32 57.53 59.78 59.42 59.34
54.33 54.19 53.31 53.39 53.77 53.70 53.77 53.74 54.05 53.65 53.53 53.56 53.35 54.25 56.35 54.34 54.13 61.06 61.77 60.61 60.37 57.78 54.38 51.25 49.93 49.78 47.49 49.43 51.06 50.25 51.33 52.68 53.54 53.44 53.65 54.55 54.42 55.32 56.34 58.94 59.83 59.11 57.67 58.49 59.09
52.69 52.37 53.01 53.22 53.40 53.38 53.34 53.92 53.29 53.24 53.00 53.12 53.75 54.52 55.51 48.84 58.53 61.54 59.30 59.14 57.70 55.38 54.23 53.83 51.99 51.78 49.56 49.25 48.80 50.24 50.31 50.50 51.95 52.27 52.31 51.64 52.74 54.06 55.69 58.45 58.40 56.74 56.93 58.51 59.82
53.47 52.79 52.46 52.81 53.16 53.36 53.39 54.04 53.94 53.36 53.16 53.50 54.65 56.19 53.67 50.96 57.01 59.65 58.94 57.10 56.67 55.32 52.97 54.04 53.89 50.85 50.96 48.33 51.25 49.96 47.25 48.94 49.88 50.83 50.56 51.84 48.80 49.63 53.64 55.13 55.22 55.72 56.35 58.19 60.56
52.70 52.80 52.43 52.72 53.09 53.14 53.37 53.43 53.67 53.78 53.60 54.25 54.93 57.37 51.65 54.38 56.96 56.38 57.70 56.46 56.55 56.47 55.09 55.33 54.53 52.03 50.70 51.56 48.85 46.75 47.38 43.75 48.56 49.80 50.09 49.82 44.70 50.40 53.39 53.45 53.50 54.01 55.35 56.71 59.87
52.41 52.70 52.61 52.60 52.78 53.01 53.18 53.52 55.46 54.79 54.46 54.98 56.21 56.46 51.43 56.63 51.82 55.80 56.87 53.33 54.26 54.39 55.03 54.16 52.67 50.57 50.22 46.28 44.51 46.09 41.68 43.66 45.47 49.63 49.38 48.79 45.96 50.46 53.21 53.04 52.69 53.53 54.45 55.66 58.33
52.14 52.76 52.51 52.30 52.78 52.90 53.38 53.89 54.83 55.01 55.87 57.31 57.87 52.32 54.26 50.65 53.31 54.95 55.92 54.64 51.31 51.70 50.70 50.47 49.78 47.11 47.42 44.74 39.55 42.38 43.23 44.29 43.84 47.60 47.97 46.52 46.77 49.47 52.01 51.97 52.04 52.92 53.52 54.29 56.86
52.10 52.43 52.59 52.43 52.76 53.16 54.11 58.07 55.60 55.15 55.87 53.12 52.50 52.43 52.01 54.71 56.29 53.90 54.70 52.83 52.13 50.40 45.98 49.65 45.45 43.20 45.47 47.17 46.49 45.01 44.03 43.97 46.50 47.61 46.34 46.46 47.18 48.70 51.16 51.74 51.19 51.89 52.86 53.67 55.50
52.08 52.06 52.70 52.74 52.80 53.07 54.93 54.62 53.59 55.04 49.31 53.90 52.60 52.24 53.35 54.26 49.81 51.99 54.53 49.39 48.74 45.24 47.97 46.42 43.03 46.38 46.74 46.88 45.61 44.78 43.24 43.21 45.83 47.56 46.34 45.90 45.64 48.22 49.93 50.69 51.55 51.78 52.48 53.02 54.07
51.57 52.11 53.15 53.09 53.09 54.41 56.95 54.69 58.19 57.65 50.16 51.20 51.64 50.61 51.03 53.13 49.67 50.22 52.59 50.42 47.04 45.64 45.99 44.14 45.78 47.10 45.64 44.53 43.27 43.58 42.56 43.18 43.14 46.30 47.30 45.46 43.78 45.90 48.69 50.42 51.20 51.96 52.92 53.48 53.85
51.65 52.15 52.92 53.08 50.82 58.87 56.24 57.92 58.39 57.92 46.45 48.07 48.27 50.66 50.97 51.94 48.47 53.00 53.35 50.23 47.87 45.00 46.36 45.86 47.90 45.18 43.88 43.00 44.16 41.36 45.70 44.53 43.37 42.50 39.03 46.05 37.45 45.04 46.58 47.50 48.74 50.39 51.67 52.53 53.41
51.28 51.61 52.67 51.46 58.18 55.86 56.78 58.80 58.15 56.66 38.42 47.66 48.29 54.35 51.77 49.08 49.37 49.98 53.51 50.70 45.74 46.17 46.89 43.99 44.82 43.81 42.60 43.19 45.48 42.77 46.22 44.70 44.34 42.60 41.93 41.74 39.30 42.77 46.94 45.78 47.22 49.37 51.03 52.89 54.43
50.72 51.15 52.05 56.71 59.05 57.38 58.79 58.21 56.98 45.84 37.31 45.09 48.05 46.64 47.19 48.30 48.46 50.01 49.58 51.56 50.64 46.89 47.30 46.28 49.21 46.97 45.35 46.28 45.93 45.88 44.47 44.16 43.84 41.93 35.66 40.46 40.00 40.36 43.80 45.60 47.43 49.33 50.60 51.56 52.44
50.52 50.51 51.85 57.63 55.30 59.80 59.77 55.10 44.77 39.60 47.32 43.62 44.21 46.41 46.20 45.82 46.72 47.94 46.81 46.49 44.11 40.93 41.29 44.60 45.06 47.64 47.88 43.70 45.89 44.94 40.55 33.80 33.39 34.52 34.75 43.08 40.11 42.24 45.60 46.80 48.48 49.04 49.22 50.23 52.15
49.69 49.10 54.54 58.48 60.25 59.70 57.28 49.49 39.08 44.12 44.11 47.00 45.65 46.32 43.83 46.23 46.54 46.89 45.73 44.29 47.37 45.66 42.14 38.21 36.62 44.51 47.63 44.63 42.33 43.00 41.90 34.56 27.27 30.83 35.07 41.05 36.78 42.38 47.25 48.74 48.54 48.75 49.74 51.09 52.56
48.16 58.29 58.74 60.82 59.82 58.69 52.42 43.09 43.29 45.37 45.40 44.14 44.83 42.77 43.93 45.45 44.26 45.13 44.80 44.04 45.82 46.58 39.22 39.37 38.97 44.74 46.62 47.03 45.68 42.02 39.18 44.22 37.21 39.19 34.79 38.70 42.74 46.12 47.11 46.64 47.30 47.87 49.85 51.63 51.91
54.33 57.07 57.92 59.62 60.60 56.24 49.13 42.88 45.66 47.41 46.92 45.75 40.76 43.89 41.31 43.54 43.21 43.84 43.27 45.63 44.29 46.51 48.68 43.83 36.56 44.50 44.88 46.83 46.52 44.65 45.30 37.75 38.88 29.88 28.42 35.24 37.85 37.89 43.96 45.43 46.81 48.11 49.44 51.22 51.86
54.79 52.63 57.80 60.76 58.76 51.41 44.46 46.08 46.26 48.08 47.22 44.27 42.83 42.33 43.33 42.64 43.52 42.59 42.54 44.98 45.22 45.71 47.08 45.27 40.87 40.45 43.35 42.25 40.89 41.54 40.05 41.27 40.92 36.73 31.54 30.61 35.30 45.38 44.56 46.44 47.21 48.20 49.64 50.43 51.71
54.14 48.32 57.77 58.21 48.58 50.55 45.32 45.35 43.65 44.47 46.24 44.76 45.00 44.01 43.38 43.68 42.25 41.93 41.16 43.29 45.94 46.85 42.27 44.62 41.35 35.92 38.16 44.71 46.56 44.71 38.61 39.85 34.30 34.16 37.61 36.21 36.56 46.61 46.73 48.15 48.81 48.77 49.94 51.74 52.71
50.01 50.31 57.01 53.57 45.07 45.27 46.60 44.35 44.35 43.03 43.63 44.19 43.97 45.71 46.18 43.08 39.82 42.27 42.81 46.27 46.70 44.80 43.10 45.14 39.21 33.66 36.05 40.99 44.30 41.62 42.58 42.53 41.80 40.91 35.82 33.11 36.99 46.95 47.93 48.14 48.85 49.33 50.75 51.16 52.55
49.47 46.39 50.84 51.07 49.25 44.52 43.41 42.90 41.25 44.53 43.69 44.94 44.13 44.99 43.53 42.12 44.30 41.23 41.57 43.87 45.70 45.11 44.88 43.98 40.62 36.77 31.98 36.06 37.31 33.98 39.49 41.93 39.78 35.55 36.06 37.30 38.73 42.34 44.39 45.19 48.42 49.34 50.94 51.27 52.47
50.99 47.39 47.28 43.80 45.76 45.22 44.48 43.48 41.17 40.63 44.25 45.03 42.23 42.76 41.77 38.70 40.16 39.97 42.11 42.93 44.37 46.56 44.51 43.27 36.17 38.26 39.31 40.21 40.01 39.00 38.70 39.62 37.63 39.63 35.45 38.08 38.40 41.80 44.62 46.73 48.38 50.11 50.63 50.63 50.87
44.88 44.91 47.65 45.04 46.97 44.47 43.37 42.47 41.13 41.27 41.74 40.45 39.91 41.10 42.16 39.84 40.60 38.36 40.83 41.51 40.93 44.19 42.75 44.14 36.86 37.90 36.34 39.80 39.90 37.91 40.07 40.17 40.03 40.17 40.18 39.22 38.84 45.04 46.82 48.20 48.27 48.98 50.72 50.39 50.54
48.69 48.57 45.70 44.80 46.23 43.61 43.25 41.57 40.26 41.60 41.49 42.44 41.33 40.57 40.79 42.35 43.96 44.45 45.08 44.73 43.73 41.72 40.99 40.99 39.03 35.61 32.79 38.41 38.43 34.94 39.32 40.08 40.89 42.43 41.39 37.07 41.37 45.38 45.04 46.64 48.80 49.37 50.50 50.58 51.07

GFSSW_sfc_wetblb_072.txt.gz
Wetbulb
55.73 55.68 55.71 55.73 55.85 55.81 55.65 55.18 55.19 55.14 55.33 55.63 55.69 55.56 55.88 56.16 56.25 56.09 54.75 59.57 59.54 60.08 58.17 52.96 55.12 55.07 55.17 53.68 55.35 55.45 49.15 47.59 48.68 50.03 52.01 55.99 54.92 57.56 58.06 55.23 57.21 59.23 59.17 60.68 62.66
55.00 55.33 55.28 54.79 54.83 54.71 54.88 55.01 55.03 55.15 55.04 55.43 55.52 55.34 55.44 55.63 54.08 54.51 60.77 61.92 60.47 58.74 51.18 49.90 48.98 52.96 51.30 51.71 52.70 51.09 48.37 47.94 51.78 52.97 52.71 54.82 55.03 56.40 55.81 55.41 55.48 57.78 60.75 61.38 61.56
54.84 54.86 55.07 54.49 53.94 54.05 54.02 54.49 55.08 55.23 55.08 55.09 54.99 54.77 54.79 55.39 54.18 55.74 62.09 61.52 60.60 57.42 57.47 55.96 52.80 50.87 49.46 52.05 51.20 50.93 48.20 50.99 51.75 53.00 53.56 53.07 54.15 56.80 55.64 54.50 56.46 55.85 58.74 60.57 60.64
53.43 53.23 53.57 53.38 53.79 53.78 53.85 53.95 54.23 54.71 54.97 54.66 54.57 54.43 54.77 54.70 48.97 55.52 62.49 61.08 59.93 58.13 58.20 53.39 50.97 48.31 47.40 48.04 51.76 48.40 51.08 51.88 52.36 53.27 52.83 51.92 54.02 53.40 54.98 56.43 59.10 59.07 59.29 59.58 59.61
53.48 53.80 53.60 53.36 53.26 53.54 54.00 54.21 54.15 54.18 54.00 54.18 54.15 54.54 55.09 53.66 53.78 58.45 62.99 60.29 56.67 57.99 55.81 51.90 49.65 48.80 46.20 48.50 50.06 49.24 50.48 51.83 53.06 52.96 53.07 53.63 51.98 52.19 53.10 57.15 59.60 60.01 59.24 58.81 58.90
52.95 53.08 53.06 52.99 53.03 53.34 53.38 53.53 53.95 54.04 53.79 53.94 54.14 54.54 53.28 48.60 60.02 58.72 57.84 57.90 59.44 55.31 55.05 53.98 51.91 52.13 49.01 48.37 47.80 49.55 49.71 50.39 51.69 51.40 52.00 50.81 51.15 52.02 53.57 56.72 57.31 58.43 59.12 58.37 58.97
53.10 52.80 52.57 52.96 52.98 53.17 53.33 53.27 53.35 53.95 54.54 54.41 54.56 55.33 52.16 51.65 55.87 60.00 58.05 57.06 57.34 55.23 53.02 54.62 53.87 51.31 50.80 48.04 50.49 49.51 46.66 48.35 48.92 49.84 49.14 51.01 48.25 48.66 53.07 55.14 55.12 55.98 57.82 57.85 58.42
53.18 52.89 52.83 52.78 53.00 53.32 53.59 54.25 54.08 54.36 54.93 54.68 55.14 55.30 50.46 57.48 57.39 56.31 58.79 56.65 57.35 56.34 55.18 55.41 54.75 51.57 49.97 50.95 48.98 46.67 46.87 42.81 47.59 48.98 49.41 49.20 44.08 49.85 52.78 52.76 52.44 53.20 54.72 56.10 57.75
53.06 53.22 52.95 52.65 53.02 53.39 53.63 54.02 54.78 56.37 55.43 55.08 53.96 54.30 50.94 57.60 51.82 54.53 55.92 53.69 54.72 55.13 55.03 54.82 52.75 49.06 49.39 45.75 43.62 44.80 40.48 42.67 44.58 48.88 48.08 47.79 45.04 49.52 51.85 52.09 52.34 53.27 54.25 54.55 56.33
52.66 52.95 52.91 53.05 53.24 53.49 53.82 53.61 55.76 54.65 54.67 56.24 56.16 52.45 55.07 51.95 54.11 52.63 55.84 55.44 52.75 51.62 50.71 50.35 49.24 46.23 46.00 44.06 37.61 41.13 41.95 43.18 43.18 47.12 48.02 46.33 46.15 49.16 51.10 51.13 51.98 52.73 53.51 54.46 55.06
52.39 52.50 52.95 53.41 53.49 53.63 53.20 56.91 54.30 53.90 56.48 52.67 53.97 52.38 53.68 55.41 56.35 54.08 54.75 53.08 52.03 49.95 45.33 48.86 44.71 42.82 45.17 46.41 46.13 45.14 43.65 42.49 45.24 48.13 47.08 46.13 46.04 47.52 50.40 50.74 50.46 51.96 53.28 54.42 55.20
52.06 52.21 52.91 53.67 53.94 53.96 53.03 54.84 54.15 55.03 49.09 54.36 54.59 53.41 54.33 54.60 50.20 52.39 54.83 49.46 48.69 44.90 47.52 45.62 42.53 46.86 47.56 46.48 44.78 44.41 43.04 42.68 45.37 47.41 46.73 45.70 45.16 47.68 49.13 50.08 51.47 52.07 52.80 53.65 54.91
52.21 52.02 52.67 53.47 53.43 53.13 56.30 55.48 58.36 57.54 49.90 51.68 54.20 51.48 51.62 52.51 49.57 50.36 52.31 50.24 47.12 44.98 45.43 43.60 45.60 48.51 46.95 44.73 43.32 43.36 41.98 42.12 41.94 45.27 46.67 45.31 43.09 45.21 48.24 49.98 51.25 52.46 53.98 54.53 54.82
51.62 51.74 52.44 52.66 51.66 58.07 56.23 58.86 58.15 58.94 44.88 48.98 49.13 50.57 51.37 51.77 48.36 53.60 53.74 50.78 48.20 44.69 45.61 44.98 47.97 46.47 45.53 43.80 44.18 40.14 44.89 44.22 43.25 41.69 37.63 45.29 36.94 44.37 47.52 48.36 50.05 50.97 52.23 52.94 53.70
51.40 51.59 51.78 51.74 55.51 55.18 56.96 58.29 57.90 56.81 37.16 49.17 49.49 54.52 52.06 48.82 49.92 50.40 53.98 50.89 45.66 45.47 46.29 43.76 45.21 44.72 43.72 43.69 45.39 42.11 45.67 43.98 43.46 41.64 41.40 41.20 37.97 41.57 46.30 44.99 47.52 50.09 50.83 52.71 53.76
51.01 50.81 51.10 55.93 56.74 59.42 59.39 58.74 56.18 45.37 37.40 46.18 48.81 47.07 47.02 48.53 48.68 50.34 50.03 51.73 50.34 46.27 46.83 45.58 48.91 46.97 45.85 46.95 46.29 46.51 44.06 43.46 42.76 40.55 34.12 39.50 38.96 39.71 42.89 45.62 48.03 50.37 50.24 51.42 52.66
50.67 50.33 49.69 56.54 55.12 59.38 59.68 55.23 44.36 39.68 49.08 45.11 44.91 46.94 46.31 45.65 46.78 48.04 46.91 46.10 43.60 40.50 40.96 44.87 45.28 48.30 48.64 43.87 46.46 44.54 41.08 33.36 32.29 32.59 31.67 40.95 37.47 41.77 46.56 48.41 48.87 49.31 49.79 51.99 52.83
49.38 48.97 52.21 56.57 59.51 59.73 57.08 48.98 38.25 44.89 45.97 49.17 46.75 46.04 43.47 46.00 46.04 46.58 45.89 43.87 47.14 45.10 41.45 38.14 35.84 45.11 46.19 43.45 42.82 42.50 40.62 34.93 27.09 29.32 33.18 41.14 34.54 40.87 47.96 49.13 49.18 50.73 51.27 51.72 51.03
48.22 58.20 56.26 59.66 60.66 58.44 51.47 42.19 42.58 46.01 47.87 45.49 45.10 41.94 42.89 45.88 45.95 45.51 44.70 44.07 45.86 46.69 40.43 38.38 38.61 46.63 45.32 46.47 46.10 41.70 37.18 43.35 37.28 38.65 34.60 37.08 39.25 44.59 48.09 48.39 48.27 48.35 48.99 49.68 51.71
49.08 56.32 57.09 61.49 60.34 55.88 47.34 42.07 46.06 49.59 48.21 46.67 40.68 43.32 40.06 42.91 43.09 43.89 43.77 46.33 45.10 46.89 48.07 43.44 37.06 43.65 44.95 46.50 45.74 41.99 43.59 35.05 36.49 27.45 26.55 34.68 36.66 37.60 43.18 45.18 47.94 47.48 48.05 50.02 53.13
51.37 52.84 58.50 60.22 58.44 50.75 43.35 45.93 48.27 49.77 47.78 43.06 42.12 41.50 41.75 41.00 42.42 42.37 42.67 45.35 46.60 45.91 47.16 45.03 41.64 40.28 42.74 40.20 40.09 40.14 38.62 40.61 40.37 38.40 30.12 28.46 34.11 44.71 44.26 46.80 46.74 47.72 48.85 50.49 51.88
50.77 48.53 58.37 57.02 46.79 49.85 46.79 47.51 46.49 46.53 47.43 44.97 44.75 43.19 41.85 43.20 42.22 42.12 41.64 43.67 47.00 46.60 42.06 43.69 40.13 35.62 37.59 43.79 45.73 44.19 41.24 40.82 32.52 32.20 36.33 34.26 33.98 46.97 46.74 47.57 49.35 48.16 49.51 50.66 51.59
45.74 50.76 58.01 55.27 43.78 45.18 47.27 46.25 47.03 45.67 44.80 43.64 43.52 45.32 45.52 42.25 38.98 42.03 42.74 46.40 46.53 45.22 43.13 44.27 38.79 31.96 33.84 40.63 42.11 36.61 38.00 38.46 37.26 38.05 30.83 29.63 34.85 46.77 46.37 47.45 48.39 48.25 49.94 50.53 52.30
48.06 44.94 51.03 51.82 50.78 46.14 44.59 43.65 43.57 47.51 45.08 44.57 43.96 45.23 43.20 41.44 43.98 41.08 41.68 44.66 46.27 45.79 45.91 44.27 39.10 35.04 30.39 34.48 39.25 34.94 36.00 38.61 35.90 33.79 35.00 35.72 38.27 42.38 44.53 44.44 46.32 48.47 50.11 50.23 51.30
50.29 47.19 48.95 43.20 45.54 46.22 46.11 44.82 42.37 42.30 45.63 45.81 42.71 42.77 41.43 38.35 39.39 39.36 42.23 43.21 45.13 47.69 45.10 43.39 35.92 38.08 38.49 39.42 39.71 38.57 38.16 38.78 37.82 38.94 35.12 37.51 37.99 42.27 44.93 44.75 47.06 49.14 49.19 48.19 48.58
46.23 44.12 46.66 44.60 47.32 45.90 44.02 43.71 42.69 42.92 42.57 40.23 39.29 41.13 41.84 38.46 39.92 38.56 40.95 40.95 40.14 43.70 42.70 44.64 36.64 38.44 35.89 39.38 39.29 37.48 39.71 40.44 39.83 39.92 39.31 39.64 39.59 45.43 47.55 47.77 47.08 48.22 48.96 48.39 50.34
49.90 49.29 45.85 43.42 44.86 42.48 43.02 43.78 42.40 43.01 42.59 42.88 41.85 40.64 39.78 41.18 44.04 44.42 44.48 44.01 43.37 41.22 40.62 40.35 38.13 35.75 31.82 38.32 37.42 33.07 38.60 39.72 40.41 42.05 40.38 36.22 41.33 45.66 45.33 46.05 47.26 48.18 49.10 49.50 51.16

GFSSW_sfc_wetblb_075.txt.gz
Wetbulb
54.97 55.01 55.05 54.80 54.85 54.41 54.46 54.55 54.84 54.86 55.56 55.54 55.90 55.97 55.79 55.91 55.56 52.51 49.34 56.81 57.18 62.20 60.46 51.69 50.10 50.62 51.13 48.80 51.16 51.10 41.65 41.07 44.42 46.56 48.38 52.81 51.68 54.09 54.28 52.76 55.71 57.46 57.61 59.68 60.25
54.73 54.27 54.14 54.43 53.99 54.01 54.08 54.09 54.33 54.99 55.24 55.50 55.55 55.52 55.19 55.30 51.28 49.75 57.86 63.42 62.41 61.63 51.62 48.48 45.46 47.48 46.36 46.83 47.47 45.97 42.56 43.59 48.58 49.82 48.77 50.81 51.42 52.28 52.91 52.42 52.68 55.66 59.13 61.09 59.51
53.68 53.53 53.96 53.72 53.91 54.00 53.55 53.70 54.02 54.28 55.02 55.25 55.10 55.23 54.79 54.06 49.12 53.36 64.61 62.41 61.89 59.23 49.69 51.93 50.13 46.95 42.55 45.96 45.50 46.14 43.02 47.29 49.13 50.88 51.77 50.75 50.77 52.34 51.43 49.98 52.42 53.20 56.26 58.70 57.75
53.83 53.61 53.64 53.81 53.87 53.68 53.49 53.79 54.55 54.84 54.92 54.68 54.75 54.66 54.98 51.73 43.81 51.98 63.72 62.86 61.94 55.74 53.76 53.98 49.27 42.10 39.96 39.97 45.28 42.98 47.28 48.32 49.33 51.21 50.93 49.68 51.20 50.63 50.73 53.55 56.48 56.49 57.01 57.09 56.39
53.19 53.30 53.08 53.36 53.27 53.34 53.54 53.60 53.83 54.05 54.39 54.27 54.42 54.48 52.11 48.09 49.99 59.37 63.95 61.54 55.14 54.28 53.90 52.62 45.26 43.31 39.64 41.95 43.68 43.09 45.67 48.42 49.78 50.15 50.25 51.35 49.93 50.19 50.31 52.78 56.04 57.73 57.27 56.36 55.70
53.02 52.93 52.99 53.11 53.08 53.20 53.03 53.31 53.11 53.23 54.02 54.66 54.32 54.58 49.99 42.22 55.78 58.86 57.06 55.55 55.90 53.58 54.47 52.34 47.54 48.04 43.78 42.82 41.26 44.21 45.00 45.52 46.94 47.18 48.19 47.88 48.64 49.01 51.01 52.90 52.82 55.82 56.55 56.52 55.88
52.54 53.19 53.25 53.56 52.91 53.11 53.18 52.92 53.03 53.59 54.19 54.83 54.79 53.47 48.23 46.08 56.07 56.64 55.55 53.86 55.70 56.14 51.06 51.72 51.44 47.73 46.77 43.36 45.93 45.36 42.14 44.32 45.28 44.87 44.21 46.85 44.23 45.51 49.86 51.59 50.61 51.37 54.68 56.57 56.15
53.46 52.73 53.29 53.44 53.22 53.26 53.99 54.40 54.35 54.63 54.88 55.30 54.54 51.80 45.59 55.18 54.15 52.23 54.72 54.67 55.31 54.65 53.16 52.82 51.93 47.49 44.47 45.98 45.20 41.48 40.63 35.40 42.20 45.49 46.34 43.81 39.74 46.62 49.15 49.29 49.11 50.89 51.48 52.67 55.24
53.29 53.19 53.10 53.21 53.81 54.01 54.13 54.11 54.48 56.67 56.50 55.03 50.77 48.79 46.79 56.90 51.71 52.64 52.89 53.05 54.03 54.21 52.60 54.25 49.17 44.63 44.99 39.65 36.73 37.99 33.84 36.64 40.71 45.98 45.62 43.69 41.50 46.54 49.15 48.67 48.04 48.96 49.73 50.67 50.76
53.02 52.92 53.08 53.19 53.92 54.21 53.87 53.87 54.75 54.40 54.15 54.28 53.08 46.74 52.34 52.30 54.01 53.31 51.41 53.37 51.33 51.24 49.47 47.65 44.16 40.37 38.92 35.42 30.14 34.95 36.03 38.72 38.94 43.23 44.28 43.00 42.64 45.84 47.91 48.10 47.80 47.42 48.23 49.95 51.01
52.46 52.69 52.80 53.56 53.70 54.25 52.34 51.52 48.91 48.78 51.88 48.93 50.86 50.18 53.49 56.12 56.21 51.21 53.70 51.70 51.54 47.69 40.58 44.65 38.15 35.55 39.52 41.75 42.22 41.43 40.20 39.42 42.51 45.33 42.83 41.92 42.71 44.36 46.28 46.11 45.07 45.51 47.53 48.69 50.45
52.15 52.08 52.46 53.08 53.31 54.23 50.61 49.17 51.00 50.64 45.23 53.30 53.89 54.08 56.26 55.15 49.71 51.89 54.26 47.53 46.15 40.78 43.84 40.72 37.03 43.03 45.44 45.03 43.50 41.58 38.89 38.30 42.03 44.87 43.36 41.78 41.66 44.19 46.07 45.39 45.26 46.26 46.82 48.59 49.55
52.15 52.09 52.17 52.69 52.70 50.16 49.59 53.92 56.48 54.41 44.45 49.50 52.82 51.65 52.10 50.95 48.35 49.05 51.48 48.35 44.89 41.55 41.56 38.35 42.10 46.78 45.26 43.54 42.27 40.59 38.46 38.64 38.98 42.54 43.19 41.20 39.05 41.46 45.01 46.08 47.00 47.69 47.76 49.05 49.18
51.76 51.84 51.95 51.27 50.53 52.71 51.57 57.32 54.16 54.99 39.14 46.05 49.15 50.24 50.18 49.49 46.82 52.08 52.78 48.64 44.87 41.45 42.66 41.08 44.80 44.40 43.16 41.86 42.72 37.75 42.89 42.50 41.22 38.66 32.64 40.33 31.15 38.18 42.55 43.42 45.33 46.98 47.81 47.39 49.50
51.49 51.50 51.28 50.57 47.68 49.25 53.74 54.80 53.34 51.86 30.75 48.36 48.42 52.20 49.73 46.65 48.63 49.15 52.94 49.07 43.34 43.39 42.60 40.11 41.92 41.54 40.82 42.21 44.68 40.54 43.80 41.59 40.97 36.52 33.39 36.30 31.99 36.42 41.46 41.26 43.13 45.39 47.88 48.47 48.27
51.13 51.00 50.74 50.82 49.66 52.01 56.15 55.51 51.73 39.36 33.19 45.41 47.78 46.35 45.16 46.75 47.20 48.70 48.93 49.53 48.28 43.60 43.48 42.29 46.39 44.53 43.53 46.56 45.79 46.36 43.30 39.53 37.88 33.88 26.62 34.53 33.52 34.67 37.99 40.68 43.28 46.73 47.78 48.69 47.92
50.81 50.34 48.49 50.45 49.75 55.22 55.67 50.81 37.37 33.78 49.10 44.26 44.34 45.93 44.11 43.78 45.22 46.08 44.76 42.75 38.90 35.50 36.21 41.45 42.62 45.38 47.95 42.39 45.34 43.42 37.83 29.19 24.75 24.26 26.32 36.85 34.29 35.88 41.78 45.32 46.33 46.41 48.21 47.19 49.55
49.31 49.19 50.08 49.98 53.31 54.74 52.24 43.30 31.22 42.63 44.26 48.97 46.64 45.19 41.60 43.39 43.04 44.21 43.18 40.67 43.78 41.75 38.73 36.11 32.69 42.70 47.11 42.43 38.42 38.00 37.58 30.06 23.10 21.44 27.23 37.09 31.96 36.87 44.68 47.62 48.36 48.50 47.12 48.18 46.44
48.65 51.53 52.46 54.54 52.93 53.97 45.94 35.11 37.29 43.36 47.05 44.87 44.47 40.88 40.18 43.45 43.36 42.77 42.13 41.78 43.98 44.54 35.88 33.95 35.76 45.02 46.24 45.68 42.18 37.91 35.21 39.98 32.86 33.55 29.73 31.96 36.82 41.74 44.68 45.84 48.01 47.33 47.31 45.04 44.77
44.73 47.99 53.98 58.07 57.99 51.49 41.72 38.62 41.52 47.22 47.27 44.87 38.33 41.25 37.18 39.80 39.56 39.94 40.31 44.75 43.48 45.04 43.59 39.46 32.42 42.63 44.65 45.57 43.54 39.39 41.44 32.34 33.35 25.33 23.74 29.25 32.13 33.22 40.47 43.21 45.54 46.11 45.77 45.93 46.80
45.85 47.92 55.94 57.78 55.72 46.62 37.07 41.10 45.84 48.88 47.29 43.94 40.15 38.40 38.32 37.86 39.03 38.70 40.66 44.00 45.07 43.40 42.84 39.31 36.05 36.88 40.46 38.07 36.40 34.52 33.61 36.68 35.55 33.33 27.86 25.17 29.24 41.61 39.74 42.22 44.28 46.34 46.84 45.91 46.72
43.25 41.72 56.04 55.37 43.31 43.84 42.01 47.27 45.62 45.53 47.58 44.68 43.49 41.56 39.50 40.77 39.44 38.79 38.88 41.76 45.84 44.67 38.26 40.56 36.15 31.17 35.36 40.99 42.33 40.15 35.25 36.05 29.39 29.97 32.19 30.82 29.22 43.22 41.86 42.17 44.64 45.27 47.09 47.97 46.07
40.42 44.35 54.62 52.37 39.01 40.43 44.06 45.02 45.68 44.51 44.37 43.67 42.04 42.49 42.69 39.39 34.86 40.23 40.77 45.88 45.47 43.94 41.24 41.04 32.38 25.37 28.24 33.34 38.43 35.68 37.72 36.31 35.39 34.81 29.65 28.18 27.49 43.87 44.46 45.09 44.81 44.09 46.53 47.99 48.83
42.15 41.67 46.58 48.46 47.11 42.99 40.95 41.95 42.32 47.16 45.18 45.29 43.15 43.71 40.65 38.46 40.42 37.96 38.59 43.05 44.90 44.79 48.77 43.08 33.45 29.62 24.48 29.57 34.37 33.45 36.66 37.18 34.31 27.63 28.25 31.47 32.86 37.41 42.46 42.22 43.70 44.97 46.96 48.05 48.20
45.72 42.79 44.81 38.95 39.89 41.23 42.87 43.16 41.14 41.09 43.87 43.50 40.40 40.10 37.80 33.52 35.85 35.79 39.10 40.80 43.19 46.44 41.64 37.60 30.56 33.94 35.91 37.92 37.44 36.12 35.88 36.36 34.83 34.42 30.66 34.39 34.97 37.65 40.69 41.47 43.11 45.32 46.50 46.38 46.92
43.75 40.56 41.85 39.57 42.72 41.26 42.09 40.55 40.78 41.36 41.32 39.28 37.38 39.83 39.05 34.58 36.07 33.99 36.72 36.39 35.74 39.40 37.15 37.58 30.67 34.38 32.76 37.06 36.82 35.45 37.45 37.87 37.69 37.78 37.19 36.37 35.98 42.12 43.70 43.73 42.77 44.34 47.12 46.16 46.91
46.12 46.47 42.21 40.34 39.99 39.63 39.63 39.59 40.15 41.69 41.97 41.63 39.77 37.80 36.69 38.73 40.45 39.33 38.78 38.89 38.15 35.35 33.89 33.53 31.22 29.66 26.47 35.17 34.52 28.73 34.36 37.78 37.60 39.04 36.97 32.11 35.88 41.96 40.92 42.28 42.57 42.48 46.57 46.05 46.72